TimeEDT,TemperatureF,Dew PointF,Humidity,Sea Level PressureIn,VisibilityMPH,Wind Direction,Wind SpeedMPH,Gust SpeedMPH,PrecipitationIn,Events,Conditions,WindDirDegrees,DateUTC
12:51 AM,72.0,60.1,66,30.11,10.0,SSE,8.1,-,N/A,,Overcast,160,2013-08-07 04:51:00
1:51 AM,71.1,61.0,70,30.12,10.0,South,5.8,-,N/A,,Overcast,180,2013-08-07 05:51:00
2:51 AM,71.1,61.0,70,30.11,10.0,Calm,Calm,-,N/A,,Overcast,0,2013-08-07 06:51:00
3:51 AM,68.0,61.0,78,30.12,10.0,SSW,3.5,-,N/A,,Clear,210,2013-08-07 07:51:00
4:51 AM,70.0,62.1,76,30.12,10.0,South,3.5,-,N/A,,Overcast,190,2013-08-07 08:51:00
5:51 AM,70.0,63.0,78,30.13,10.0,Calm,Calm,-,N/A,,Overcast,0,2013-08-07 09:51:00
6:51 AM,71.1,61.0,70,30.13,10.0,SE,4.6,-,N/A,,Overcast,130,2013-08-07 10:51:00
7:36 AM,71.6,60.8,69,30.13,10.0,SE,5.8,-,0.00,Rain,Light Rain,140,2013-08-07 11:36:00
7:51 AM,72.0,61.0,68,30.13,10.0,SSE,6.9,-,0.00,Rain,Light Rain,160,2013-08-07 11:51:00
8:07 AM,73.4,60.8,65,30.13,10.0,SSE,6.9,-,0.00,,Overcast,150,2013-08-07 12:07:00
8:51 AM,73.9,60.1,62,30.12,10.0,SSE,9.2,-,0.00,,Overcast,160,2013-08-07 12:51:00
9:51 AM,73.9,60.1,62,30.12,10.0,SSE,9.2,-,N/A,,Overcast,150,2013-08-07 13:51:00
10:51 AM,73.9,60.1,62,30.13,10.0,SE,8.1,-,N/A,,Overcast,140,2013-08-07 14:51:00
11:51 AM,75.0,61.0,62,30.13,10.0,South,8.1,-,0.00,Rain,Light Rain,180,2013-08-07 15:51:00
12:51 PM,75.0,62.1,64,30.12,10.0,South,9.2,-,0.00,Rain,Light Rain,190,2013-08-07 16:51:00
1:51 PM,77.0,63.0,62,30.11,10.0,South,11.5,-,0.00,Rain,Light Rain,180,2013-08-07 17:51:00
2:51 PM,80.1,60.1,50,30.10,10.0,SSE,12.7,-,N/A,,Overcast,160,2013-08-07 18:51:00
3:51 PM,77.0,62.1,60,30.09,10.0,South,10.4,-,N/A,,Overcast,170,2013-08-07 19:51:00
4:51 PM,75.9,63.0,64,30.07,10.0,South,10.4,20.7,0.00,Rain,Light Rain,170,2013-08-07 20:51:00
5:51 PM,77.0,64.0,64,30.06,10.0,SSE,12.7,-,0.00,,Overcast,150,2013-08-07 21:51:00
6:51 PM,75.0,64.9,71,30.06,10.0,SSE,13.8,-,N/A,,Overcast,160,2013-08-07 22:51:00
7:08 PM,73.4,64.4,73,30.07,10.0,South,10.4,18.4,N/A,,Overcast,170,2013-08-07 23:08:00
7:30 PM,73.4,66.2,78,30.06,10.0,SSE,10.4,-,N/A,,Overcast,160,2013-08-07 23:30:00
7:51 PM,73.9,66.0,76,30.06,10.0,South,11.5,16.1,N/A,,Overcast,170,2013-08-07 23:51:00
8:11 PM,73.4,66.2,78,30.06,10.0,South,8.1,-,N/A,,Overcast,170,2013-08-08 00:11:00
8:28 PM,73.4,66.2,78,30.06,10.0,SSE,8.1,-,N/A,,Overcast,160,2013-08-08 00:28:00
8:51 PM,73.9,66.9,79,30.07,10.0,South,6.9,-,N/A,,Overcast,170,2013-08-08 00:51:00
9:36 PM,73.4,66.2,78,30.07,10.0,SSE,10.4,-,0.00,Rain,Light Rain,160,2013-08-08 01:36:00
9:51 PM,73.9,66.9,79,30.08,10.0,SSE,10.4,-,0.00,Rain,Light Rain,160,2013-08-08 01:51:00
10:51 PM,73.0,66.9,81,30.08,10.0,South,6.9,-,0.00,,Overcast,180,2013-08-08 02:51:00
11:07 PM,73.4,66.2,78,30.07,10.0,South,9.2,-,N/A,,Overcast,170,2013-08-08 03:07:00
11:51 PM,73.0,66.9,81,30.06,10.0,South,8.1,-,N/A,,Overcast,180,2013-08-08 03:51:00